[[{"header":{"parameterUnit":"m.s-1","parameterCategory":2,"la1":30.2991,"la2":30.254,"lo1":-89.0895,"lo2":-89.0444,"dy":0.0017,"dx":0.0017,"nx":28,"ny":28,"refTime":"2023-07-25T21:00:00:Z","depth":"0","parameterNumber":2,"parameterNumberName":"U-component_of_CURRENTS"},"data":[0,0,0,0,0,0,0,0,0,0,0,0,0,0,0,0,0,0,0,0,0,0,0,0,0,0,0,0,0,0,0,0,0,0,0,0,0,0,0,0,0,0,0,0,0,0,0,0,0,0,0,0,0,0,0,0,0,0,-0.0437,-0.0439,0,-0.0571,-0.0572,-0.0573,-0.0608,-0.0607,-0.0606,-0.0606,-0.0665,-0.0667,-0.0669,0,0,0,0,0,0,0,0,0,0,0,0,0,-0.0288,-0.029,-0.0437,-0.0439,-0.0441,-0.0571,-0.0572,-0.0574,-0.0608,-0.0607,-0.0606,-0.0606,-0.0664,-0.0667,-0.0669,0,0,0,0,0,0,0,0,0,0,0,0,0,-0.0378,-0.029,-0.0437,-0.0475,-0.048,-0.057,-0.0572,-0.0574,-0.0608,-0.0607,-0.0606,-0.0605,-0.0663,-0.0666,-0.067,-0.0708,0,0,-0.0679,-0.0681,0,0,0,0,0,0,0,0,-0.0373,-0.0383,-0.0468,-0.0473,-0.0479,-0.0574,-0.0542,-0.0616,-0.0608,-0.0557,-0.0606,-0.0605,-0.063,-0.0636,-0.0661,-0.0711,-0.0713,-0.068,-0.0682,-0.0683,-0.0684,0,0,0,0,0,0,0,-0.0366,-0.0378,-0.0488,-0.047,-0.0476,-0.0512,-0.0523,-0.0556,-0.0594,-0.0561,-0.0565,-0.0584,-0.0632,-0.0657,-0.0662,-0.0714,-0.068,-0.0683,-0.0685,-0.0686,-0.0816,-0.0817,0,0,0,0,0,0,-0.0352,-0.0372,-0.0483,-0.0492,-0.0425,-0.0515,-0.0527,-0.0542,-0.0595,-0.0604,-0.0584,-0.0585,-0.0652,-0.0658,-0.0664,-0.0721,-0.0683,-0.0686,-0.0688,-0.0814,-0.0816,-0.0818,0,0,0,0,0,0,-0.0348,-0.036,-0.0478,-0.0437,-0.0455,-0.0519,-0.0535,-0.0545,-0.0572,-0.0614,-0.062,-0.06,-0.0652,-0.066,-0.0706,-0.0723,-0.0688,-0.0691,-0.0812,-0.0815,-0.0817,-0.0829,0,0,0,0,0,0,-0.0343,-0.0358,-0.0364,-0.0436,-0.0456,-0.054,-0.0537,-0.0549,-0.0586,-0.0588,-0.063,-0.0634,-0.0652,-0.0701,-0.0709,-0.0727,-0.0693,-0.081,-0.0813,-0.0816,-0.0827,-0.0832,-0.0836,0,0,0,0,0,-0.0337,-0.0359,-0.0364,-0.0377,-0.0462,-0.0542,-0.0557,-0.0597,-0.0587,-0.0613,-0.0639,-0.0633,-0.0724,-0.0706,-0.0714,-0.0733,-0.0809,-0.0812,-0.0816,-0.0825,-0.0831,-0.0836,0,0,0,0,0,0,-0.0309,-0.0367,-0.0373,-0.0412,-0.0473,-0.0549,-0.0577,-0.0598,-0.0641,-0.0633,-0.0658,-0.0666,-0.0712,-0.0726,-0.0704,-0.0781,-0.0764,-0.0769,-0.0768,-0.0774,-0.0778,-0.077,-0.0696,0,0,0,0,0,-0.0302,-0.0323,-0.0392,-0.0424,-0.0451,-0.0509,-0.0544,-0.0572,-0.0621,-0.0638,-0.067,-0.07,-0.0736,-0.0755,-0.0791,-0.0835,-0.0838,-0.0853,-0.0857,-0.0861,-0.0862,-0.0882,-0.0888,-0.0829,-0.0829,-0.0829,0,0,-0.0302,-0.0335,-0.0349,-0.0418,-0.0462,-0.0515,-0.0527,-0.0584,-0.0625,-0.0637,-0.0694,-0.0718,-0.0752,-0.0804,-0.0824,-0.0815,-0.0881,-0.0865,-0.0868,-0.0867,-0.0886,-0.0892,-0.0896,-0.0831,-0.0831,-0.083,0,0,-0.0319,-0.034,-0.0364,-0.0411,-0.0477,-0.052,-0.0534,-0.061,-0.0638,-0.0699,-0.0714,-0.0752,-0.081,-0.0844,-0.0864,-0.0917,-0.0904,-0.0921,-0.0937,-0.0957,-0.0961,-0.0965,-0.0978,-0.0983,-0.0923,-0.0923,-0.0923,0,-0.0315,-0.035,-0.0389,-0.0429,-0.0465,-0.0519,-0.0562,-0.0613,-0.0694,-0.0718,-0.0716,-0.0805,-0.0833,-0.0891,-0.091,-0.0926,-0.0926,-0.091,-0.096,-0.0964,-0.0968,-0.098,-0.0985,-0.0924,-0.0924,-0.0924,-0.0924,0,-0.0354,-0.038,-0.0404,-0.0461,-0.0509,-0.0557,-0.0627,-0.0675,-0.0704,-0.0749,-0.081,-0.0855,-0.0901,-0.092,-0.0931,-0.0977,-0.0965,-0.096,-0.094,-0.0974,-0.0985,-0.099,-0.0925,-0.0925,-0.0925,-0.0925,0,0,-0.0345,-0.0414,-0.042,-0.0441,-0.0523,-0.057,-0.0636,-0.0714,-0.0749,-0.0816,-0.0859,-0.0929,-0.0937,-0.0962,-0.0981,-0.1003,-0.1035,-0.099,-0.099,-0.099,-0.1068,-0.102,-0.1021,-0.1028,-0.1029,-0.103,-0.1065,0,-0.036,-0.0418,-0.0455,-0.0516,-0.055,-0.0609,-0.0667,-0.0739,-0.0792,-0.0852,-0.0899,-0.0946,-0.0959,-0.0969,-0.1,-0.1029,-0.1049,-0.1026,-0.1046,-0.1046,-0.0989,-0.1026,-0.0946,-0.0967,-0.107,-0.1071,-0.1071,0,-0.0383,-0.0413,-0.0463,-0.0525,-0.0546,-0.059,-0.0671,-0.0731,-0.0823,-0.086,-0.0913,-0.0947,-0.1008,-0.0997,-0.1066,-0.1045,-0.1056,-0.1073,-0.1075,-0.1028,-0.1008,-0.0951,-0.0972,-0.0828,-0.1079,-0.1078,-0.1078,0,-0.0352,-0.0421,-0.0452,-0.0477,-0.056,-0.0585,-0.0634,-0.0724,-0.0772,-0.0854,-0.0883,-0.096,-0.0989,-0.1028,-0.1064,-0.1064,-0.1117,-0.1123,-0.1094,-0.109,-0.1027,-0.1015,-0.0899,-0.1157,-0.1157,-0.1157,-0.1157,0,-0.0354,-0.0378,-0.0433,-0.045,-0.0486,-0.0551,-0.0602,-0.0663,-0.0745,-0.0799,-0.0869,-0.0913,-0.0993,-0.1034,-0.1066,-0.1091,-0.1119,-0.1102,-0.1099,-0.103,-0.1019,-0.0893,-0.0915,-0.1158,-0.1158,-0.1158,-0.1157,0,-0.0322,-0.0361,-0.039,-0.045,-0.047,-0.0491,-0.0573,-0.0616,-0.0689,-0.0757,-0.0777,-0.0883,-0.0933,-0.0991,-0.1057,-0.1083,-0.1082,-0.1108,-0.1017,-0.1002,-0.085,-0.0879,-0.0953,-0.0926,-0.1104,-0.1103,-0.1102,0,-0.0319,-0.0326,-0.0369,-0.0379,-0.0402,-0.0446,-0.0484,-0.0576,-0.0625,-0.0738,-0.0766,-0.0831,-0.0874,-0.095,-0.1,-0.1041,-0.1023,-0.0991,-0.0985,-0.0827,-0.0858,-0.0944,-0.0922,-0.0912,-0.091,-0.0908,-0.0907,0,-0.0293,-0.0297,-0.0314,-0.0328,-0.0354,-0.0394,-0.0452,-0.0486,-0.0597,-0.0646,-0.0716,-0.075,-0.083,-0.0846,-0.089,-0.0916,-0.0935,-0.0954,-0.0816,-0.0723,-0.079,-0.0763,-0.0899,-0.089,-0.0892,-0.0893,-0.0894,-0.0895,-0.0264,-0.0257,-0.0268,-0.0279,-0.031,-0.0338,-0.0351,-0.0415,-0.0468,-0.0524,-0.0615,-0.0613,-0.0664,-0.0723,-0.0719,-0.0643,-0.0828,-0.062,-0.0679,-0.0785,-0.0728,-0.0821,-0.0788,-0.0789,-0.079,-0.0791,-0.0792,0,-0.0244,-0.0231,-0.0228,-0.0239,-0.0255,-0.0286,-0.0334,-0.0337,-0.0366,-0.0389,-0.0425,-0.0401,-0.0378,-0.0381,-0.0369,-0.0337,-0.04,-0.0329,-0.0388,-0.0386,-0.0447,-0.0392,-0.0238,-0.0239,-0.0239,-0.0239,-0.0239,-0.0239,-0.0234,-0.0218,-0.0205,-0.019,-0.02,-0.0207,-0.0221,-0.0214,-0.0214,-0.0169,-0.013,-0.0128,-0.0084,-0.0086,0.0006,-0.0025,-0.0038,-0.0151,-0.017,-0.0111,-0.014,-0.0167,-0.0108,0.0101,0.0101,-0.0048,-0.0049,-0.0049]},{"header":{"parameterUnit":"m.s-1","parameterCategory":2,"la1":30.2991,"la2":30.254,"lo1":-89.0895,"lo2":-89.0444,"dy":0.0017,"dx":0.0017,"nx":28,"ny":28,"refTime":"2023-07-25T21:00:00:Z","depth":"0","parameterNumber":3,"parameterNumberName":"V-component_of_CURRENTS"},"data":[0,0,0,0,0,0,0,0,0,0,0,0,0,0,0,0,0,0,0,0,0,0,0,0,0,0,0,0,0,0,0,0,0,0,0,0,0,0,0,0,0,0,0,0,0,0,0,0,0,0,0,0,0,0,0,0,0,0,-0.1154,-0.1153,0,-0.1024,-0.1022,-0.102,-0.0924,-0.0924,-0.0924,-0.0924,-0.08,-0.0797,-0.0794,0,0,0,0,0,0,0,0,0,0,0,0,0,-0.1179,-0.118,-0.1154,-0.1153,-0.1152,-0.1024,-0.1022,-0.1019,-0.0924,-0.0924,-0.0924,-0.0924,-0.0801,-0.0797,-0.0793,0,0,0,0,0,0,0,0,0,0,0,0,0,-0.1114,-0.118,-0.1154,-0.1095,-0.1089,-0.1025,-0.1022,-0.1019,-0.0924,-0.0924,-0.0924,-0.0924,-0.0802,-0.0798,-0.0793,-0.0767,0,0,-0.0778,-0.0776,0,0,0,0,0,0,0,0,-0.1118,-0.1112,-0.1105,-0.1099,-0.1092,-0.0997,-0.0986,-0.0938,-0.0924,-0.0978,-0.0924,-0.0923,-0.0872,-0.0861,-0.0826,-0.0761,-0.0756,-0.0778,-0.0775,-0.0773,-0.0772,0,0,0,0,0,0,0,-0.1123,-0.1116,-0.1095,-0.1104,-0.1096,-0.1027,-0.1018,-0.0975,-0.0922,-0.0974,-0.0968,-0.0966,-0.0867,-0.0831,-0.0823,-0.0754,-0.0778,-0.0774,-0.0771,-0.0769,-0.0645,-0.0644,0,0,0,0,0,0,-0.1162,-0.1122,-0.1099,-0.1092,-0.1114,-0.1028,-0.1018,-0.1021,-0.0922,-0.0909,-0.0967,-0.0963,-0.0839,-0.0828,-0.0818,-0.0775,-0.0773,-0.0769,-0.0766,-0.0645,-0.0645,-0.0644,0,0,0,0,0,0,-0.1163,-0.1162,-0.1104,-0.1109,-0.1098,-0.103,-0.1033,-0.1019,-0.0977,-0.0918,-0.0903,-0.094,-0.0838,-0.0825,-0.0778,-0.077,-0.0766,-0.0762,-0.0646,-0.0645,-0.0644,-0.0695,0,0,0,0,0,0,-0.1165,-0.1163,-0.1164,-0.1112,-0.11,-0.1063,-0.1034,-0.1017,-0.098,-0.0973,-0.0891,-0.0879,-0.0837,-0.0785,-0.0773,-0.0764,-0.0758,-0.0646,-0.0645,-0.0645,-0.0694,-0.0696,-0.0698,0,0,0,0,0,-0.1166,-0.1172,-0.1165,-0.1162,-0.1109,-0.1064,-0.1049,-0.0994,-0.098,-0.0955,-0.0908,-0.0881,-0.0771,-0.0781,-0.0767,-0.0756,-0.0647,-0.0646,-0.0645,-0.0693,-0.0696,-0.0698,0,0,0,0,0,0,-0.1168,-0.1163,-0.1153,-0.1154,-0.1114,-0.105,-0.1029,-0.0996,-0.0936,-0.0933,-0.0875,-0.0859,-0.0814,-0.0779,-0.0791,-0.0717,-0.0704,-0.0701,-0.0746,-0.0748,-0.075,-0.0768,-0.0754,0,0,0,0,0,-0.1179,-0.1189,-0.1158,-0.1154,-0.1144,-0.1088,-0.106,-0.1026,-0.0977,-0.0948,-0.0899,-0.0846,-0.0798,-0.077,-0.0723,-0.0683,-0.0669,-0.0667,-0.0669,-0.0671,-0.0676,-0.0661,-0.0663,-0.0641,-0.0641,-0.0641,0,0,-0.1175,-0.1177,-0.1178,-0.1156,-0.1124,-0.1098,-0.1068,-0.1033,-0.1004,-0.0948,-0.0895,-0.0852,-0.079,-0.0744,-0.0721,-0.0714,-0.0668,-0.067,-0.0672,-0.0676,-0.0661,-0.0663,-0.0665,-0.064,-0.064,-0.064,0,0,-0.1175,-0.1182,-0.1186,-0.1163,-0.1134,-0.1103,-0.1099,-0.1043,-0.1011,-0.0959,-0.0918,-0.0879,-0.0793,-0.0757,-0.0724,-0.0711,-0.0682,-0.0689,-0.0711,-0.0697,-0.0699,-0.0701,-0.0687,-0.0688,-0.0688,-0.0688,-0.0688,0,-0.1162,-0.1172,-0.1171,-0.1163,-0.1143,-0.1112,-0.1089,-0.1055,-0.0987,-0.0966,-0.0949,-0.0847,-0.08,-0.0754,-0.0744,-0.0717,-0.0703,-0.0709,-0.0702,-0.0704,-0.0705,-0.069,-0.069,-0.0691,-0.069,-0.069,-0.069,0,-0.1163,-0.116,-0.1161,-0.1151,-0.1127,-0.1104,-0.1075,-0.105,-0.1018,-0.0978,-0.093,-0.0875,-0.0816,-0.0795,-0.0758,-0.0739,-0.0725,-0.0712,-0.0703,-0.0711,-0.0694,-0.0693,-0.0694,-0.0693,-0.0692,-0.0692,0,0,-0.1142,-0.1158,-0.1153,-0.1147,-0.1119,-0.1098,-0.1076,-0.1036,-0.102,-0.0971,-0.0942,-0.0873,-0.0855,-0.082,-0.0785,-0.0771,-0.0765,-0.0745,-0.0743,-0.0745,-0.0734,-0.0796,-0.08,-0.0752,-0.0752,-0.0752,-0.0721,0,-0.1127,-0.1128,-0.1132,-0.1106,-0.1097,-0.1078,-0.1056,-0.1023,-0.0992,-0.0963,-0.0931,-0.0885,-0.0862,-0.0837,-0.0824,-0.0773,-0.0764,-0.0775,-0.0715,-0.0713,-0.0779,-0.0802,-0.0738,-0.0712,-0.072,-0.0719,-0.0719,0,-0.111,-0.1117,-0.1104,-0.1095,-0.1088,-0.1069,-0.1041,-0.1016,-0.0986,-0.0963,-0.0939,-0.0909,-0.088,-0.0864,-0.0811,-0.0818,-0.0783,-0.0754,-0.0752,-0.0793,-0.0774,-0.0703,-0.0709,-0.0488,-0.0717,-0.0717,-0.0717,0,-0.1091,-0.1088,-0.1084,-0.1077,-0.1065,-0.1054,-0.104,-0.101,-0.0991,-0.0968,-0.0956,-0.0923,-0.0899,-0.0865,-0.0812,-0.0804,-0.0763,-0.0742,-0.0769,-0.0772,-0.0699,-0.0697,-0.0496,-0.0717,-0.0717,-0.0717,-0.0717,0,-0.1065,-0.1055,-0.1081,-0.1072,-0.106,-0.1051,-0.1026,-0.1013,-0.0994,-0.0975,-0.0959,-0.0947,-0.0897,-0.0869,-0.0825,-0.0805,-0.0773,-0.0785,-0.0776,-0.0715,-0.0715,-0.0505,-0.0399,-0.0716,-0.0716,-0.0716,-0.0716,0,-0.1025,-0.1046,-0.1039,-0.1045,-0.1049,-0.1035,-0.102,-0.1006,-0.0995,-0.0977,-0.0973,-0.0952,-0.0935,-0.09,-0.0839,-0.0823,-0.0701,-0.079,-0.0733,-0.072,-0.0576,-0.0477,-0.0404,-0.033,-0.0824,-0.0825,-0.0827,0,-0.1003,-0.1002,-0.1019,-0.1021,-0.1021,-0.1011,-0.1004,-0.0998,-0.099,-0.098,-0.0977,-0.0968,-0.0969,-0.0934,-0.0907,-0.0877,-0.0721,-0.0791,-0.0783,-0.0572,-0.0452,-0.0447,-0.0388,-0.0685,-0.0685,-0.0685,-0.0685,0,-0.0954,-0.0966,-0.0964,-0.0979,-0.0981,-0.0982,-0.098,-0.0979,-0.0976,-0.0976,-0.0978,-0.0983,-0.0989,-0.0975,-0.0965,-0.0897,-0.0646,-0.0797,-0.0562,-0.0332,-0.0323,-0.0245,-0.0697,-0.0685,-0.0685,-0.0685,-0.0685,-0.0685,-0.0912,-0.0906,-0.0919,-0.0928,-0.0934,-0.0946,-0.094,-0.0955,-0.0953,-0.0958,-0.0977,-0.0999,-0.0981,-0.0988,-0.0886,-0.0616,-0.0682,-0.0498,-0.0396,-0.0414,-0.0341,-0.0827,-0.0828,-0.0829,-0.083,-0.083,-0.0831,0,-0.0863,-0.0869,-0.0871,-0.0885,-0.0881,-0.0901,-0.0918,-0.0918,-0.0923,-0.0957,-0.0971,-0.0988,-0.0868,-0.0737,-0.0462,-0.0221,-0.0153,-0.0049,0.0075,0.0114,-0.0268,-0.0255,-0.015,-0.0151,-0.0151,-0.0151,-0.0151,-0.0152,-0.0839,-0.0832,-0.0842,-0.0833,-0.0838,-0.0834,-0.0841,-0.0858,-0.0889,-0.0918,-0.0958,-0.1003,-0.0749,-0.0201,0.0283,0.0361,0.0584,0.0524,0.0607,0.0495,0.0465,0.0436,0.0477,0.0733,0.0735,0.0974,0.0978,0.098]}],[{"header":{"parameterUnit":"m.s-1","parameterCategory":2,"la1":30.2991,"la2":30.254,"lo1":-89.0895,"lo2":-89.0444,"dy":0.0017,"dx":0.0017,"nx":28,"ny":28,"refTime":"2023-07-25T21:00:00:Z","depth":"2","parameterNumber":2,"parameterNumberName":"U-component_of_CURRENTS"},"data":[0,0,0,0,0,0,0,0,0,0,0,0,0,0,0,0,0,0,0,0,0,0,0,0,0,0,0,0,0,0,0,0,0,0,0,0,0,0,0,0,0,0,0,0,0,0,0,0,0,0,0,0,0,0,0,0,0,0,-0.2625,-0.2625,0,-0.2607,-0.2607,-0.2606,-0.2549,-0.2548,-0.2546,-0.2545,-0.2445,-0.2443,-0.2441,0,0,0,0,0,0,0,0,0,0,0,0,0,-0.2602,-0.2603,-0.2625,-0.2625,-0.2625,-0.2607,-0.2607,-0.2606,-0.2549,-0.2547,-0.2546,-0.2545,-0.2445,-0.2443,-0.2441,0,0,0,0,0,0,0,0,0,0,0,0,0,-0.2599,-0.2603,-0.2625,-0.2595,-0.2592,-0.2607,-0.2607,-0.2606,-0.2549,-0.2547,-0.2546,-0.2544,-0.2446,-0.2443,-0.2441,-0.246,0,0,-0.2433,-0.2432,0,0,0,0,0,0,0,0,-0.26,-0.26,-0.2599,-0.2597,-0.2594,-0.258,-0.2562,-0.2554,-0.255,-0.2564,-0.2545,-0.2543,-0.2485,-0.2479,-0.2478,-0.2455,-0.2451,-0.2433,-0.2432,-0.2431,-0.243,0,0,0,0,0,0,0,-0.26,-0.2601,-0.2616,-0.26,-0.2596,-0.2581,-0.2578,-0.256,-0.2531,-0.2562,-0.2558,-0.256,-0.2482,-0.2481,-0.2475,-0.2449,-0.2433,-0.2431,-0.243,-0.2429,-0.2371,-0.2371,0,0,0,0,0,0,-0.2608,-0.2601,-0.2616,-0.2615,-0.2595,-0.2583,-0.258,-0.2585,-0.2533,-0.2524,-0.2561,-0.2557,-0.2486,-0.2478,-0.2471,-0.2412,-0.2431,-0.2428,-0.2427,-0.2371,-0.2371,-0.2371,0,0,0,0,0,0,-0.2608,-0.261,-0.2617,-0.2609,-0.2609,-0.2585,-0.2591,-0.2585,-0.2558,-0.2533,-0.2523,-0.2537,-0.2484,-0.2474,-0.2438,-0.241,-0.2427,-0.2425,-0.2371,-0.2371,-0.2371,-0.2344,0,0,0,0,0,0,-0.2607,-0.261,-0.2602,-0.261,-0.261,-0.2611,-0.2593,-0.2586,-0.2564,-0.2558,-0.251,-0.25,-0.2482,-0.2442,-0.2435,-0.2407,-0.2423,-0.2371,-0.2371,-0.2371,-0.2345,-0.2343,-0.2341,0,0,0,0,0,-0.2607,-0.2604,-0.2602,-0.2603,-0.2604,-0.2612,-0.2609,-0.2586,-0.2565,-0.2554,-0.2522,-0.25,-0.2436,-0.244,-0.2432,-0.2403,-0.2371,-0.2371,-0.2371,-0.2346,-0.2343,-0.2341,0,0,0,0,0,0,-0.258,-0.2599,-0.2595,-0.2595,-0.2598,-0.2602,-0.2585,-0.2578,-0.2547,-0.2528,-0.25,-0.2489,-0.2443,-0.2438,-0.2443,-0.2389,-0.24,-0.2398,-0.2383,-0.2381,-0.2379,-0.235,-0.2421,0,0,0,0,0,-0.2577,-0.2579,-0.2596,-0.259,-0.259,-0.2585,-0.2579,-0.257,-0.2554,-0.2537,-0.2508,-0.2476,-0.2444,-0.2423,-0.2398,-0.2375,-0.2341,-0.2353,-0.2351,-0.2349,-0.2323,-0.2282,-0.2273,-0.237,-0.237,-0.237,0,0,-0.2558,-0.2573,-0.2568,-0.2584,-0.2578,-0.2568,-0.2575,-0.2564,-0.2539,-0.2531,-0.2477,-0.2463,-0.2436,-0.2401,-0.238,-0.2388,-0.2302,-0.2349,-0.2348,-0.2321,-0.228,-0.227,-0.2262,-0.237,-0.237,-0.237,0,0,-0.2531,-0.2541,-0.2532,-0.2538,-0.2541,-0.2542,-0.2536,-0.2536,-0.2513,-0.249,-0.2464,-0.2428,-0.2402,-0.2363,-0.2344,-0.2319,-0.2291,-0.2326,-0.2291,-0.2252,-0.2243,-0.2234,-0.2163,-0.2149,-0.2329,-0.2329,-0.2329,0,-0.2503,-0.2504,-0.2527,-0.2523,-0.2514,-0.2526,-0.2505,-0.2494,-0.2477,-0.2454,-0.2464,-0.2394,-0.2373,-0.2304,-0.23,-0.2307,-0.2282,-0.2299,-0.2246,-0.2238,-0.2229,-0.2159,-0.2143,-0.2328,-0.2328,-0.2328,-0.2328,0,-0.2471,-0.2468,-0.2463,-0.2458,-0.2454,-0.2443,-0.2441,-0.2423,-0.2411,-0.2399,-0.2341,-0.2323,-0.2281,-0.2276,-0.228,-0.2212,-0.2211,-0.2245,-0.2246,-0.2217,-0.2145,-0.2129,-0.2326,-0.2327,-0.2327,-0.2327,0,0,-0.2393,-0.2435,-0.2422,-0.2414,-0.2421,-0.2408,-0.2376,-0.2348,-0.2309,-0.2298,-0.224,-0.22,-0.2201,-0.2179,-0.2177,-0.2145,-0.2068,-0.2177,-0.2176,-0.2094,-0.196,-0.1896,-0.1873,-0.2108,-0.2106,-0.2104,-0.1927,0,-0.2346,-0.2341,-0.2367,-0.2325,-0.2313,-0.2325,-0.2295,-0.227,-0.2256,-0.221,-0.2179,-0.2135,-0.2161,-0.2148,-0.2115,-0.2085,-0.2028,-0.211,-0.201,-0.2005,-0.1943,-0.1853,-0.1729,-0.1556,-0.1911,-0.1908,-0.1906,0,-0.2278,-0.2291,-0.2263,-0.2267,-0.2258,-0.223,-0.218,-0.216,-0.2118,-0.211,-0.207,-0.2068,-0.1999,-0.2047,-0.1941,-0.2002,-0.1967,-0.1943,-0.1936,-0.1869,-0.1911,-0.1647,-0.1514,-0.1879,-0.1882,-0.1884,-0.1885,0,-0.2189,-0.2199,-0.2176,-0.2175,-0.2185,-0.2153,-0.2142,-0.2111,-0.2081,-0.2039,-0.2018,-0.1963,-0.1923,-0.1883,-0.1854,-0.19,-0.1739,-0.1796,-0.1682,-0.1677,-0.1541,-0.1528,-0.1694,-0.1694,-0.1695,-0.1695,-0.1696,0,-0.2123,-0.209,-0.213,-0.2109,-0.2059,-0.2084,-0.2019,-0.2011,-0.198,-0.1922,-0.1954,-0.1886,-0.189,-0.1824,-0.1802,-0.1673,-0.1691,-0.1624,-0.1614,-0.1529,-0.1517,-0.1791,-0.1804,-0.1688,-0.169,-0.1691,-0.1692,0,-0.2014,-0.2053,-0.2016,-0.2023,-0.2014,-0.1967,-0.1949,-0.1905,-0.1906,-0.183,-0.1819,-0.1798,-0.1714,-0.1699,-0.1612,-0.158,-0.149,-0.1443,-0.1327,-0.1306,-0.1459,-0.1474,-0.1266,-0.1262,-0.1258,-0.1256,-0.1253,0,-0.1959,-0.1934,-0.1929,-0.1898,-0.189,-0.1849,-0.1817,-0.184,-0.1801,-0.1754,-0.1695,-0.1632,-0.1542,-0.1391,-0.1339,-0.1239,-0.1348,-0.1074,-0.113,-0.1397,-0.1409,-0.1429,-0.1448,-0.0929,-0.0924,-0.092,-0.0917,0,-0.183,-0.1827,-0.1804,-0.1762,-0.172,-0.1697,-0.1658,-0.1631,-0.1641,-0.159,-0.1481,-0.1411,-0.128,-0.1128,-0.1047,-0.0978,-0.109,-0.0989,-0.1261,-0.108,-0.1071,-0.1087,-0.1117,-0.0881,-0.0885,-0.0888,-0.0889,-0.0891,-0.1705,-0.1666,-0.164,-0.1587,-0.1561,-0.1525,-0.1477,-0.145,-0.1387,-0.1299,-0.1288,-0.1164,-0.1091,-0.091,-0.08,-0.0729,-0.0821,-0.0782,-0.0797,-0.0815,-0.0831,-0.082,-0.0583,-0.0584,-0.0586,-0.0587,-0.0588,0,-0.1547,-0.1517,-0.1464,-0.1417,-0.1364,-0.139,-0.1347,-0.1293,-0.119,-0.114,-0.1044,-0.0881,-0.0746,-0.07,-0.0532,-0.0461,-0.0479,-0.0425,-0.0473,-0.0505,-0.0535,-0.0542,-0.0213,-0.0212,-0.0212,-0.0211,0,0,-0.1451,-0.1362,-0.1353,-0.123,-0.1198,-0.1112,-0.1077,-0.1016,-0.0977,-0.0838,-0.0777,-0.0802,-0.0739,-0.0561,-0.0435,-0.0318,-0.0427,-0.0273,-0.0567,-0.0661,-0.0692,-0.0715,-0.0758,0,0,0,0,0]},{"header":{"parameterUnit":"m.s-1","parameterCategory":2,"la1":30.2991,"la2":30.254,"lo1":-89.0895,"lo2":-89.0444,"dy":0.0017,"dx":0.0017,"nx":28,"ny":28,"refTime":"2023-07-25T21:00:00:Z","depth":"2","parameterNumber":3,"parameterNumberName":"V-component_of_CURRENTS"},"data":[0,0,0,0,0,0,0,0,0,0,0,0,0,0,0,0,0,0,0,0,0,0,0,0,0,0,0,0,0,0,0,0,0,0,0,0,0,0,0,0,0,0,0,0,0,0,0,0,0,0,0,0,0,0,0,0,0,0,0.086,0.0861,0,0.094,0.0941,0.0942,0.0972,0.0971,0.097,0.097,0.0997,0.0999,0.1,0,0,0,0,0,0,0,0,0,0,0,0,0,0.0877,0.0876,0.086,0.0861,0.0862,0.0939,0.0941,0.0942,0.0972,0.0971,0.097,0.097,0.0997,0.0998,0.1,0,0,0,0,0,0,0,0,0,0,0,0,0,0.0907,0.0876,0.086,0.0883,0.0886,0.0939,0.0941,0.0943,0.0972,0.0971,0.097,0.0969,0.0996,0.0998,0.1,0.1029,0,0,0.1006,0.1007,0,0,0,0,0,0,0,0,0.0905,0.0907,0.0879,0.0882,0.0885,0.0942,0.0957,0.0968,0.0972,0.0943,0.097,0.0969,0.0972,0.0976,0.0999,0.1031,0.1032,0.1006,0.1007,0.1008,0.1009,0,0,0,0,0,0,0,0.0903,0.0905,0.0895,0.088,0.0883,0.0938,0.094,0.096,0.0963,0.0945,0.0947,0.095,0.0974,0.0997,0.0999,0.1032,0.1006,0.1008,0.1009,0.101,0.1017,0.1016,0,0,0,0,0,0,0.0879,0.0902,0.0893,0.0897,0.0889,0.0937,0.0941,0.0927,0.0964,0.0968,0.0951,0.0951,0.0994,0.0997,0.1,0.0945,0.1008,0.101,0.1011,0.1018,0.1017,0.1016,0,0,0,0,0,0,0.0879,0.0877,0.089,0.09,0.0905,0.0937,0.0923,0.0929,0.0908,0.0968,0.0972,0.0917,0.0994,0.0998,0.0992,0.0949,0.1011,0.1012,0.1019,0.1018,0.1016,0.0892,0,0,0,0,0,0,0.0879,0.0876,0.0841,0.0897,0.0903,0.088,0.0923,0.0931,0.0912,0.0912,0.0941,0.0946,0.0993,0.0989,0.0994,0.0953,0.1014,0.102,0.1018,0.1017,0.0897,0.0887,0.0877,0,0,0,0,0,0.0879,0.0824,0.0839,0.0837,0.0858,0.0878,0.0885,0.091,0.091,0.089,0.092,0.0943,0.0981,0.099,0.0996,0.0954,0.1021,0.1019,0.1017,0.0902,0.0889,0.0878,0,0,0,0,0,0,0.0798,0.0824,0.084,0.0791,0.0818,0.0881,0.085,0.0878,0.0888,0.087,0.0933,0.094,0.0921,0.0957,0.0965,0.0954,0.1003,0.1002,0.0914,0.0902,0.0892,0.0885,0.1016,0,0,0,0,0,0.0768,0.0737,0.0783,0.0739,0.0739,0.0788,0.0791,0.0811,0.0838,0.0839,0.0867,0.0896,0.0927,0.0925,0.0957,0.0944,0.1005,0.0923,0.0913,0.0904,0.0903,0.0974,0.097,0.1009,0.1009,0.1009,0,0,0.0723,0.0733,0.0712,0.0721,0.0736,0.0732,0.0785,0.0763,0.0765,0.084,0.0819,0.0856,0.0917,0.0914,0.0907,0.0929,0.0921,0.0901,0.0893,0.0898,0.0971,0.0968,0.0965,0.1007,0.1008,0.1008,0,0,0.0634,0.0622,0.0576,0.0591,0.0601,0.0644,0.0624,0.0662,0.0672,0.0676,0.0733,0.0747,0.0777,0.0826,0.0855,0.0806,0.0868,0.0798,0.0734,0.0801,0.0799,0.0797,0.0853,0.0858,0.0789,0.0788,0.0788,0,0.0577,0.0536,0.0565,0.0536,0.0537,0.0593,0.0562,0.0591,0.0626,0.0637,0.0642,0.0713,0.0745,0.078,0.076,0.0781,0.0827,0.077,0.0788,0.0788,0.0789,0.0846,0.0853,0.0782,0.0783,0.0783,0.0784,0,0.0479,0.0444,0.0409,0.0405,0.041,0.0382,0.0438,0.0435,0.0455,0.0504,0.0521,0.0587,0.0631,0.0639,0.0681,0.0697,0.0729,0.0769,0.0815,0.0777,0.084,0.085,0.0773,0.0775,0.0777,0.0779,0,0,0.0367,0.0347,0.0332,0.032,0.0336,0.0336,0.0328,0.0361,0.0364,0.0398,0.0419,0.0462,0.0496,0.0533,0.0587,0.064,0.067,0.0686,0.0692,0.0735,0.0808,0.0775,0.0783,0.0709,0.071,0.0711,0.0843,0,0.0284,0.021,0.0229,0.0175,0.0148,0.0202,0.0203,0.0238,0.0283,0.0319,0.0395,0.0425,0.0459,0.0468,0.0523,0.0651,0.0691,0.0631,0.0844,0.085,0.0822,0.0792,0.073,0.0837,0.0853,0.0855,0.0856,0,0.0189,0.0161,0.0083,0.0081,0.0071,0.0052,0.0074,0.0083,0.0161,0.0193,0.0243,0.0319,0.0393,0.0428,0.0604,0.0561,0.0654,0.0753,0.0762,0.0784,0.0835,0.0883,0.0855,0.0873,0.0871,0.087,0.0869,0,0.0113,0.0063,-0.0001,-0.0008,-0.0003,-0.003,-0.0028,0.0026,0.0041,0.0107,0.0136,0.0245,0.0308,0.044,0.0602,0.0607,0.0812,0.0857,0.0918,0.0918,0.0935,0.0933,0.0966,0.0966,0.0965,0.0965,0.0965,0,0.0033,-0.0014,-0.005,-0.0082,-0.0138,-0.012,-0.0155,-0.0127,-0.008,-0.0045,0.0047,0.0124,0.0313,0.0455,0.0593,0.0771,0.0799,0.0902,0.0947,0.0887,0.0879,0.0972,0.0971,0.097,0.0969,0.0968,0.0967,0,-0.0031,-0.0059,-0.0126,-0.0164,-0.0179,-0.0228,-0.0244,-0.0245,-0.0209,-0.0154,-0.0141,0.0043,0.0213,0.0389,0.0637,0.0758,0.0933,0.0979,0.088,0.0909,0.1003,0.0994,0.1088,0.1088,0.1088,0.1088,0.1088,0,-0.0064,-0.0115,-0.0195,-0.0233,-0.026,-0.0319,-0.0339,-0.0322,-0.0304,-0.018,-0.0137,0.0019,0.0182,0.0498,0.0715,0.093,0.0916,0.0972,0.0968,0.0979,0.1015,0.1006,0.0997,0.095,0.0949,0.0948,0.0948,0,-0.011,-0.0159,-0.0207,-0.0299,-0.0351,-0.0388,-0.0416,-0.0409,-0.0352,-0.0269,-0.0105,0.003,0.0306,0.0551,0.0768,0.088,0.093,0.0959,0.1024,0.0906,0.0854,0.0887,0.0883,0.0939,0.094,0.094,0.0941,0.0941,-0.0137,-0.0189,-0.0269,-0.0348,-0.0406,-0.0434,-0.0446,-0.0413,-0.035,-0.0205,-0.0079,0.018,0.0356,0.0733,0.0797,0.0869,0.0952,0.0962,0.0964,0.0967,0.0904,0.0853,0.0926,0.0927,0.0927,0.0928,0.0928,0,-0.0139,-0.0212,-0.0297,-0.0381,-0.0433,-0.0468,-0.0464,-0.0417,-0.0305,-0.0165,-0.0006,0.029,0.0515,0.0656,0.0811,0.0895,0.0876,0.0815,0.0784,0.0795,0.0803,0.073,0.0707,0.0706,0.0705,0.0704,0,0,-0.0139,-0.0216,-0.0269,-0.0369,-0.0434,-0.0466,-0.0456,-0.0354,-0.0241,-0.0053,0.0151,0.0377,0.0613,0.0654,0.0673,0.0687,0.0691,0.0644,0.0822,0.0784,0.079,0.0898,0.0798,0,0,0,0,0]}],[{"header":{"parameterUnit":"m.s-1","parameterCategory":2,"la1":30.2991,"la2":30.254,"lo1":-89.0895,"lo2":-89.0444,"dy":0.0017,"dx":0.0017,"nx":28,"ny":28,"refTime":"2023-07-25T21:00:00:Z","depth":"4","parameterNumber":2,"parameterNumberName":"U-component_of_CURRENTS"},"data":[0,0,0,0,0,0,0,0,0,0,0,0,0,0,0,0,0,0,0,0,0,0,0,0,0,0,0,0,0,0,0,0,0,0,0,0,0,0,0,0,0,0,0,0,0,0,0,0,0,0,0,0,0,0,0,0,0,0,-0.0853,-0.0853,0,-0.0908,-0.0909,-0.091,-0.0977,-0.0978,-0.0979,-0.098,-0.1135,-0.1138,-0.1141,0,0,0,0,0,0,0,0,0,0,0,0,0,-0.0747,-0.075,-0.0853,-0.0853,-0.0854,-0.0908,-0.0909,-0.091,-0.0977,-0.0978,-0.0979,-0.098,-0.1134,-0.1138,-0.1142,0,0,0,0,0,0,0,0,0,0,0,0,0,-0.0799,-0.075,-0.0853,-0.0892,-0.0896,-0.0908,-0.0909,-0.091,-0.0977,-0.0978,-0.0979,-0.0981,-0.1132,-0.1137,-0.1142,-0.1148,0,0,-0.1158,-0.116,0,0,0,0,0,0,0,0,-0.0796,-0.0804,-0.0886,-0.0889,-0.0893,-0.0935,-0.0929,-0.0994,-0.0977,-0.0949,-0.098,-0.0981,-0.1075,-0.1085,-0.1094,-0.1156,-0.1162,-0.1158,-0.1161,-0.1163,-0.1165,0,0,0,0,0,0,0,-0.0793,-0.0801,-0.0877,-0.0886,-0.0891,-0.0887,-0.0897,-0.0941,-0.1008,-0.0951,-0.0956,-0.0958,-0.1078,-0.1089,-0.1099,-0.1165,-0.1158,-0.1162,-0.1166,-0.1168,-0.1329,-0.133,0,0,0,0,0,0,-0.0783,-0.0798,-0.0875,-0.0879,-0.0844,-0.0888,-0.0899,-0.0922,-0.1005,-0.1018,-0.0956,-0.096,-0.108,-0.1093,-0.1105,-0.1222,-0.1163,-0.1168,-0.1171,-0.1328,-0.1329,-0.1331,0,0,0,0,0,0,-0.0781,-0.079,-0.0873,-0.0836,-0.0846,-0.0889,-0.0914,-0.0923,-0.0953,-0.1008,-0.1023,-0.098,-0.1081,-0.1097,-0.1169,-0.1225,-0.117,-0.1175,-0.1326,-0.1328,-0.133,-0.1391,0,0,0,0,0,0,-0.0778,-0.079,-0.0817,-0.0836,-0.0848,-0.0888,-0.0913,-0.0923,-0.095,-0.0957,-0.1033,-0.1047,-0.1084,-0.1162,-0.1174,-0.1231,-0.1179,-0.1325,-0.1327,-0.1329,-0.1387,-0.1395,-0.1401,0,0,0,0,0,-0.0775,-0.0788,-0.0819,-0.0828,-0.088,-0.0888,-0.0894,-0.0929,-0.095,-0.0962,-0.1024,-0.1046,-0.1186,-0.1167,-0.1181,-0.1241,-0.1323,-0.1326,-0.1329,-0.1384,-0.1393,-0.1401,0,0,0,0,0,0,-0.0739,-0.0797,-0.083,-0.086,-0.0881,-0.0899,-0.0899,-0.0933,-0.0988,-0.1016,-0.1061,-0.108,-0.116,-0.1183,-0.116,-0.129,-0.1259,-0.1264,-0.1295,-0.1304,-0.1311,-0.1334,-0.1183,0,0,0,0,0,-0.0749,-0.08,-0.0824,-0.0857,-0.0847,-0.088,-0.0892,-0.0937,-0.0976,-0.1002,-0.1061,-0.1125,-0.1178,-0.1226,-0.127,-0.1346,-0.1309,-0.1391,-0.1398,-0.1404,-0.143,-0.1464,-0.1476,-0.134,-0.134,-0.134,0,0,-0.0744,-0.0786,-0.0814,-0.0857,-0.0862,-0.0881,-0.089,-0.0922,-0.0945,-0.1012,-0.107,-0.1146,-0.1196,-0.1282,-0.1322,-0.1317,-0.1395,-0.1407,-0.1412,-0.1436,-0.1468,-0.1481,-0.1493,-0.1342,-0.1342,-0.1341,0,0,-0.074,-0.0783,-0.0808,-0.0835,-0.0875,-0.0898,-0.0908,-0.0954,-0.0962,-0.1045,-0.1092,-0.1205,-0.1283,-0.1349,-0.1383,-0.145,-0.1418,-0.1467,-0.1547,-0.1579,-0.1591,-0.1601,-0.1447,-0.1444,-0.1489,-0.1489,-0.1489,0,-0.0737,-0.0781,-0.081,-0.0835,-0.0858,-0.0902,-0.0922,-0.0928,-0.1015,-0.1045,-0.1073,-0.1268,-0.1316,-0.1428,-0.1472,-0.1471,-0.1427,-0.1514,-0.1589,-0.16,-0.1609,-0.1451,-0.1446,-0.1492,-0.1492,-0.1491,-0.1491,0,-0.0736,-0.0791,-0.0786,-0.0856,-0.0882,-0.091,-0.0926,-0.0968,-0.1021,-0.1081,-0.1206,-0.1307,-0.1448,-0.1474,-0.1507,-0.162,-0.1533,-0.1578,-0.1569,-0.1627,-0.1453,-0.1448,-0.1497,-0.1496,-0.1495,-0.1494,0,0,-0.0705,-0.0775,-0.079,-0.0817,-0.0907,-0.0917,-0.095,-0.0995,-0.1036,-0.1165,-0.1239,-0.1399,-0.1524,-0.1572,-0.1644,-0.17,-0.1695,-0.1696,-0.1696,-0.1541,-0.1638,-0.155,-0.1533,-0.1777,-0.178,-0.1782,-0.1442,0,-0.0699,-0.0742,-0.0798,-0.0855,-0.0859,-0.0931,-0.0948,-0.1026,-0.11,-0.1182,-0.1311,-0.143,-0.1524,-0.1638,-0.1718,-0.1725,-0.1706,-0.1774,-0.1609,-0.16,-0.152,-0.1537,-0.179,-0.1438,-0.1437,-0.1436,-0.1435,0,-0.0681,-0.0724,-0.0763,-0.084,-0.0842,-0.0906,-0.0984,-0.1014,-0.1132,-0.1209,-0.141,-0.1504,-0.1651,-0.1703,-0.175,-0.18,-0.1731,-0.17,-0.1687,-0.1602,-0.1511,-0.14,-0.1424,-0.1425,-0.1426,-0.1426,-0.1427,0,-0.0618,-0.0698,-0.0729,-0.0763,-0.0854,-0.0893,-0.0946,-0.1061,-0.1102,-0.1261,-0.1376,-0.1539,-0.1627,-0.1665,-0.1652,-0.1717,-0.1599,-0.1657,-0.146,-0.1442,-0.1592,-0.1586,-0.1627,-0.1628,-0.1629,-0.163,-0.1631,0,-0.0586,-0.0615,-0.0709,-0.0733,-0.077,-0.0861,-0.0932,-0.1006,-0.1163,-0.1193,-0.1424,-0.1464,-0.1646,-0.1618,-0.16,-0.1493,-0.1548,-0.1459,-0.1397,-0.1601,-0.1602,-0.1577,-0.1576,-0.1617,-0.162,-0.1622,-0.1624,0,-0.0522,-0.0575,-0.0619,-0.0721,-0.0742,-0.0784,-0.0919,-0.0986,-0.1145,-0.1198,-0.1265,-0.1417,-0.1378,-0.1441,-0.1385,-0.1387,-0.1299,-0.1208,-0.1273,-0.122,-0.11,-0.1106,-0.0983,-0.0978,-0.0974,-0.097,-0.0968,0,-0.0489,-0.0504,-0.06,-0.061,-0.0666,-0.0738,-0.079,-0.0963,-0.0991,-0.1087,-0.1061,-0.1124,-0.1173,-0.1019,-0.1098,-0.1018,-0.1036,-0.0947,-0.1207,-0.1106,-0.1057,-0.1069,-0.108,-0.0961,-0.096,-0.0959,-0.0958,0,-0.0434,-0.0481,-0.0517,-0.0542,-0.0599,-0.063,-0.0671,-0.0718,-0.0819,-0.0968,-0.0882,-0.0926,-0.0842,-0.0871,-0.0827,-0.0777,-0.1039,-0.0906,-0.0918,-0.1161,-0.1078,-0.1036,-0.1051,-0.0943,-0.0946,-0.0947,-0.0948,0,-0.0405,-0.0406,-0.0445,-0.0467,-0.0494,-0.0481,-0.055,-0.0543,-0.0617,-0.072,-0.0597,-0.0671,-0.0701,-0.072,-0.0639,-0.0661,-0.0714,-0.0756,-0.0777,-0.0793,-0.0926,-0.0805,-0.0525,0,0,0,0,0,-0.0379,-0.0351,-0.0351,-0.0347,-0.0366,-0.0378,-0.0424,-0.0495,-0.0563,-0.0481,-0.0566,-0.0472,-0.0504,-0.0525,-0.0524,-0.0586,-0.0722,-0.0585,-0.0781,-0.0864,-0.0881,-0.1077,0,0,0,0,0,0,-0.0345,-0.0338,-0.0327,-0.0237,-0.0208,-0.0216,-0.0267,-0.033,-0.0266,-0.0341,-0.0352,-0.0421,-0.045,-0.0469,-0.0493,-0.0508,-0.0624,-0.0623,-0.0623,-0.0855,-0.087,-0.0883,-0.109,0,0,0,0,0]},{"header":{"parameterUnit":"m.s-1","parameterCategory":2,"la1":30.2991,"la2":30.254,"lo1":-89.0895,"lo2":-89.0444,"dy":0.0017,"dx":0.0017,"nx":28,"ny":28,"refTime":"2023-07-25T21:00:00:Z","depth":"4","parameterNumber":3,"parameterNumberName":"V-component_of_CURRENTS"},"data":[0,0,0,0,0,0,0,0,0,0,0,0,0,0,0,0,0,0,0,0,0,0,0,0,0,0,0,0,0,0,0,0,0,0,0,0,0,0,0,0,0,0,0,0,0,0,0,0,0,0,0,0,0,0,0,0,0,0,-0.0212,-0.0212,0,-0.0233,-0.0233,-0.0233,-0.0217,-0.0216,-0.0215,-0.0214,-0.0206,-0.0206,-0.0207,0,0,0,0,0,0,0,0,0,0,0,0,0,-0.0159,-0.016,-0.0212,-0.0212,-0.0213,-0.0233,-0.0233,-0.0233,-0.0217,-0.0216,-0.0215,-0.0214,-0.0206,-0.0206,-0.0207,0,0,0,0,0,0,0,0,0,0,0,0,0,-0.0182,-0.0161,-0.0212,-0.0206,-0.0206,-0.0233,-0.0233,-0.0233,-0.0217,-0.0216,-0.0215,-0.0214,-0.0206,-0.0206,-0.0207,-0.0234,0,0,-0.0209,-0.021,0,0,0,0,0,0,0,0,-0.0181,-0.0184,-0.0207,-0.0207,-0.0206,-0.022,-0.0211,-0.0232,-0.0217,-0.0214,-0.0214,-0.0213,-0.0209,-0.0209,-0.0217,-0.0234,-0.0233,-0.0209,-0.021,-0.021,-0.021,0,0,0,0,0,0,0,-0.0179,-0.0183,-0.0221,-0.0207,-0.0207,-0.0203,-0.0205,-0.0215,-0.0217,-0.0214,-0.0212,-0.0214,-0.0208,-0.0216,-0.0216,-0.0233,-0.0209,-0.021,-0.021,-0.0211,-0.0295,-0.0297,0,0,0,0,0,0,-0.0177,-0.0182,-0.022,-0.0221,-0.019,-0.0205,-0.0207,-0.0218,-0.0218,-0.0217,-0.0215,-0.0213,-0.0215,-0.0215,-0.0216,-0.0249,-0.021,-0.0211,-0.0211,-0.0293,-0.0295,-0.0297,0,0,0,0,0,0,-0.0176,-0.0181,-0.0219,-0.0201,-0.0205,-0.0207,-0.0219,-0.0219,-0.0229,-0.0219,-0.0217,-0.0225,-0.0214,-0.0215,-0.0228,-0.0248,-0.0211,-0.0212,-0.0291,-0.0294,-0.0296,-0.0315,0,0,0,0,0,0,-0.0174,-0.018,-0.0187,-0.0201,-0.0206,-0.0235,-0.022,-0.022,-0.0231,-0.0229,-0.0227,-0.0225,-0.0214,-0.0227,-0.0229,-0.0249,-0.0212,-0.0289,-0.0292,-0.0295,-0.0312,-0.0318,-0.0323,0,0,0,0,0,-0.0173,-0.0187,-0.0188,-0.0192,-0.0216,-0.0236,-0.0239,-0.0235,-0.0233,-0.024,-0.024,-0.0225,-0.025,-0.0229,-0.023,-0.0251,-0.0287,-0.0291,-0.0295,-0.0309,-0.0317,-0.0323,0,0,0,0,0,0,-0.0172,-0.0187,-0.0188,-0.0208,-0.022,-0.0233,-0.0247,-0.0244,-0.0253,-0.0254,-0.0241,-0.024,-0.0265,-0.0262,-0.0238,-0.029,-0.027,-0.0274,-0.028,-0.0287,-0.0293,-0.0283,-0.0213,0,0,0,0,0,-0.0175,-0.0186,-0.0203,-0.0218,-0.0233,-0.0244,-0.0252,-0.0251,-0.026,-0.0263,-0.0262,-0.0271,-0.0287,-0.0286,-0.0302,-0.0322,-0.0291,-0.0342,-0.0347,-0.0351,-0.0348,-0.029,-0.0288,-0.0311,-0.0311,-0.0311,0,0,-0.0185,-0.0189,-0.02,-0.0218,-0.0236,-0.0263,-0.0247,-0.0268,-0.0283,-0.0262,-0.0288,-0.0293,-0.03,-0.0324,-0.0336,-0.0318,-0.0339,-0.0357,-0.036,-0.0354,-0.0294,-0.0291,-0.0288,-0.0313,-0.0313,-0.0312,0,0,-0.02,-0.0216,-0.023,-0.0247,-0.0266,-0.0279,-0.0287,-0.0308,-0.0312,-0.0337,-0.033,-0.0344,-0.0368,-0.0369,-0.0375,-0.0425,-0.0376,-0.0435,-0.0441,-0.0385,-0.0381,-0.0378,-0.0365,-0.036,-0.0428,-0.0428,-0.0428,0,-0.0203,-0.0229,-0.0237,-0.0257,-0.028,-0.0291,-0.0321,-0.0334,-0.0349,-0.0359,-0.0351,-0.0392,-0.0393,-0.0416,-0.0426,-0.0435,-0.0396,-0.0409,-0.0387,-0.0382,-0.0378,-0.0366,-0.036,-0.0429,-0.0429,-0.0429,-0.0429,0,-0.0238,-0.0256,-0.0275,-0.0305,-0.0327,-0.036,-0.0382,-0.0397,-0.041,-0.0422,-0.0451,-0.045,-0.0459,-0.0475,-0.046,-0.0446,-0.0429,-0.0402,-0.0357,-0.0376,-0.0364,-0.0357,-0.0431,-0.0431,-0.043,-0.043,0,0,-0.0243,-0.0288,-0.0293,-0.0315,-0.0359,-0.0382,-0.0415,-0.045,-0.0476,-0.0486,-0.0505,-0.0531,-0.0513,-0.0519,-0.0501,-0.0457,-0.0405,-0.0405,-0.0401,-0.0372,-0.0291,-0.0206,-0.0191,-0.0344,-0.0342,-0.0341,-0.0305,0,-0.0266,-0.0306,-0.0328,-0.038,-0.0413,-0.0438,-0.0474,-0.0502,-0.0523,-0.0542,-0.0538,-0.0558,-0.0534,-0.0527,-0.0478,-0.0413,-0.0383,-0.0419,-0.0297,-0.0295,-0.0196,-0.0177,-0.0336,-0.0299,-0.0298,-0.0296,-0.0296,0,-0.0293,-0.0313,-0.0368,-0.0418,-0.044,-0.0477,-0.0535,-0.0565,-0.0593,-0.0605,-0.0603,-0.0587,-0.0541,-0.0513,-0.0402,-0.041,-0.0355,-0.0314,-0.031,-0.0212,-0.0194,-0.0273,-0.0283,-0.0284,-0.0285,-0.0286,-0.0286,0,-0.0289,-0.0341,-0.0386,-0.041,-0.0473,-0.0502,-0.0541,-0.0589,-0.0623,-0.063,-0.063,-0.0591,-0.054,-0.0458,-0.0354,-0.0356,-0.0227,-0.0224,-0.0121,-0.0117,-0.0197,-0.0201,-0.016,-0.016,-0.016,-0.016,-0.016,0,-0.0304,-0.0337,-0.0392,-0.0417,-0.0481,-0.0519,-0.0588,-0.0616,-0.0658,-0.0678,-0.0648,-0.0623,-0.0505,-0.0415,-0.0347,-0.0191,-0.0213,-0.0113,-0.0083,-0.0215,-0.0221,-0.0194,-0.0198,-0.0159,-0.0159,-0.016,-0.016,0,-0.03,-0.0334,-0.0386,-0.0454,-0.0482,-0.053,-0.0619,-0.0667,-0.0685,-0.0692,-0.0679,-0.0615,-0.0467,-0.0377,-0.0236,-0.0158,-0.0054,-0.0013,-0.0184,-0.0166,0.0,-0.0006,0.0112,0.0116,0.0119,0.0122,0.0124,0,-0.0308,-0.033,-0.0412,-0.0447,-0.0486,-0.0558,-0.0617,-0.0681,-0.0694,-0.0677,-0.065,-0.0537,-0.0464,-0.0224,-0.0129,0.0011,0.0028,0.0069,0.0055,0.0021,0.0037,0.0026,0.0015,0.0129,0.013,0.0131,0.0132,0,-0.0315,-0.0346,-0.0389,-0.045,-0.0516,-0.0587,-0.0635,-0.0646,-0.0674,-0.0692,-0.0589,-0.0484,-0.0316,-0.0168,-0.0041,0.0043,0.0048,0.0102,0.0096,0.0082,0.0043,0.0053,0.0039,0.0143,0.0141,0.014,0.014,0,-0.0324,-0.0352,-0.0396,-0.0447,-0.0527,-0.0567,-0.061,-0.0595,-0.0619,-0.057,-0.0535,-0.0412,-0.0343,-0.0151,-0.0051,0.0076,0.0098,0.0124,0.0116,0.0105,0.0107,0.0055,0.0201,0,0,0,0,0,-0.0328,-0.034,-0.0386,-0.0436,-0.051,-0.0544,-0.0596,-0.062,-0.0622,-0.0539,-0.0533,-0.0387,-0.0197,-0.0137,0.001,0.0004,0.0113,0.018,0.0136,0.0204,0.0191,0.0206,0,0,0,0,0,0,-0.0329,-0.0362,-0.037,-0.0406,-0.0435,-0.0508,-0.0544,-0.0552,-0.0481,-0.047,-0.0373,-0.0335,-0.0159,-0.0271,0.0019,0.0053,0.005,0.0256,0.026,0.0211,0.02,0.0189,0.02,0,0,0,0,0]}]]